H1 CPF 2 NER 2022 1 19 9 019 01 glonass143 H2 2007501 9143 46805 2022 1 19 0 0 0 2022 1 22 23 45 0 900 1 1 0 0 0 1 H9 10 0 59598 0.00000 0 -14646774.207 2778878.661 20707156.992 10 0 59598 900.00000 0 -13045404.094 693792.386 21917032.654 10 0 59598 1800.00000 0 -11534901.503 -1606311.860 22701620.657 10 0 59598 2700.00000 0 -10163095.708 -4071550.554 23045685.933 10 0 59598 3600.00000 0 -8968618.662 -6643855.092 22942528.812 10 0 59598 4500.00000 0 -7979389.913 -9259154.507 22394116.016 10 0 59598 5400.00000 0 -7211566.999 -11849817.837 21411045.451 10 0 59598 6300.00000 0 -6669004.575 -14347255.891 20012345.224 10 0 59598 7200.00000 0 -6343244.436 -16684575.245 18225110.278 10 0 59598 8100.00000 0 -6214036.444 -18799174.993 16083983.064 10 0 59598 9000.00000 0 -6250368.186 -20635178.799 13630487.488 10 0 59598 9900.00000 0 -6411959.907 -22145601.223 10912228.383 10 0 59598 10800.00000 0 -6651161.558 -23294158.153 7981971.336 10 0 59598 11700.00000 0 -6915171.696 -24056645.668 4896620.249 10 0 59598 12600.00000 0 -7148484.262 -24421829.515 1716112.348 10 0 59598 13500.00000 0 -7295459.265 -24391807.843 -1497747.918 10 0 59598 14400.00000 0 -7302907.992 -23981831.878 -4682493.107 10 0 59598 15300.00000 0 -7122582.490 -23219592.107 -7776211.182 10 0 59598 16200.00000 0 -6713462.997 -22144000.149 -10718753.797 10 0 59598 17100.00000 0 -6043745.391 -20803517.800 -13452910.343 10 0 59598 18000.00000 0 -5092443.531 -19254103.897 -15925524.247 10 0 59598 18900.00000 0 -3850537.561 -17556865.756 -18088529.411 10 0 59598 19800.00000 0 -2321618.549 -15775514.217 -19899886.388 10 0 59598 20700.00000 0 -522001.148 -13973729.518 -21324399.962 10 0 59598 21600.00000 0 1519701.590 -12212548.631 -22334402.438 10 0 59598 22500.00000 0 3763524.551 -10547883.538 -22910289.631 10 0 59598 23400.00000 0 6159579.357 -9028274.163 -23040899.461 10 0 59598 24300.00000 0 8649906.879 -7692969.546 -22723726.237 10 0 59598 25200.00000 0 11170676.982 -6570416.823 -21964966.748 10 0 59598 26100.00000 0 13654644.458 -5677220.437 -20779397.517 10 0 59598 27000.00000 0 16033759.453 -5017614.103 -19190085.710 10 0 59598 27900.00000 0 18241824.228 -4583466.536 -17227939.281 10 0 59598 28800.00000 0 20217085.899 -4354819.592 -14931105.045 10 0 59598 29700.00000 0 21904657.537 -4300935.064 -12344226.220 10 0 59598 30600.00000 0 23258667.002 -4381804.993 -9517573.722 10 0 59598 31500.00000 0 24244044.074 -4550060.953 -6506068.096 10 0 59598 32400.00000 0 24837871.649 -4753200.792 -3368211.095 10 0 59598 33300.00000 0 25030244.905 -4936038.081 -164947.800 10 0 59598 34200.00000 0 24824602.943 -5043270.028 3041518.328 10 0 59598 35100.00000 0 24237519.623 -5022054.684 6188934.170 10 0 59598 36000.00000 0 23297962.933 -4824487.941 9216205.705 10 0 59598 36900.00000 0 22046054.570 -4409875.086 12064583.060 10 0 59598 37800.00000 0 20531382.256 -3746700.495 14678798.749 10 0 59598 38700.00000 0 18810935.934 -2814211.780 17008137.153 10 0 59598 39600.00000 0 16946754.536 -1603551.045 19007414.627 10 0 59598 40500.00000 0 15003381.872 -118384.934 20637851.735 10 0 59598 41400.00000 0 13045237.774 1624993.913 21867821.223 10 0 59598 42300.00000 0 11134013.991 3598099.247 22673457.797 10 0 59598 43200.00000 0 9326202.922 5761200.561 23039118.509 10 0 59598 44100.00000 0 7670861.530 8064751.126 22957685.246 10 0 59598 45000.00000 0 6207702.942 10451236.456 22430703.747 10 0 59598 45900.00000 0 4965594.462 12857367.611 21468356.455 10 0 59598 46800.00000 0 3961523.822 15216529.334 20089269.510 10 0 59598 47700.00000 0 3200076.164 17461382.185 18320157.132 10 0 59598 48600.00000 0 2673442.923 19526511.270 16195309.658 10 0 59598 49500.00000 0 2361961.649 21351011.874 13755934.356 10 0 59598 50400.00000 0 2235163.674 22880904.484 11049361.081 10 0 59598 51300.00000 0 2253285.108 24071278.494 8128127.529 10 0 59598 52200.00000 0 2369177.087 24888074.880 5048961.328 10 0 59598 53100.00000 0 2530534.224 25309432.879 1871678.562 10 0 59598 54000.00000 0 2682346.556 25326543.933 -1341979.858 10 0 59598 54900.00000 0 2769470.574 24943976.690 -4529551.095 10 0 59598 55800.00000 0 2739209.785 24179459.153 -7629068.638 10 0 59598 56700.00000 0 2543794.594 23063126.967 -10580271.596 10 0 59598 57600.00000 0 2142655.522 21636269.409 -13325780.941 10 0 59598 58500.00000 0 1504392.522 19949625.885 -15812219.112 10 0 59598 59400.00000 0 608356.015 18061304.685 -17991250.819 10 0 59598 60300.00000 0 -554228.248 16034411.543 -19820524.539 10 0 59598 61200.00000 0 -1979639.010 13934487.698 -21264496.263 10 0 59598 62100.00000 0 -3651571.213 11826864.877 -22295119.626 10 0 59598 63000.00000 0 -5541584.363 9774047.823 -22892389.320 10 0 59598 63900.00000 0 -7610069.701 7833233.643 -23044727.505 10 0 59598 64800.00000 0 -9807696.601 6054071.148 -22749206.163 10 0 59598 65700.00000 0 -12077278.606 4476753.069 -22011601.377 10 0 59598 66600.00000 0 -14355981.808 3130519.996 -20846278.718 10 0 59598 67500.00000 0 -16577784.067 2032637.455 -19275912.107 10 0 59598 68400.00000 0 -18676082.988 1187887.653 -17331041.589 10 0 59598 69300.00000 0 -20586344.177 588595.902 -15049478.551 10 0 59598 70200.00000 0 -22248679.578 215189.259 -12475569.796 10 0 59598 71100.00000 0 -23610248.431 37262.577 -9659334.622 10 0 59598 72000.00000 0 -24627380.649 15105.907 -6655491.654 10 0 59598 72900.00000 0 -25267333.969 101627.724 -3522394.367 10 0 59598 73800.00000 0 -25509611.505 244591.808 -320896.058 10 0 59598 74700.00000 0 -25346784.710 389072.427 2886833.334 10 0 59598 75600.00000 0 -24784787.550 480023.275 6038515.351 10 0 59598 76500.00000 0 -23842669.864 464850.909 9072972.337 10 0 59598 77400.00000 0 -22551820.602 295883.335 11931314.163 10 0 59598 78300.00000 0 -20954693.819 -67371.038 14558079.276 10 0 59598 79200.00000 0 -19103091.013 -656269.947 16902307.984 10 0 59598 80100.00000 0 -17056071.840 -1491472.156 18918527.349 10 0 59598 81000.00000 0 -14877580.524 -2581827.184 20567629.044 10 0 59598 81900.00000 0 -12633886.815 -3923767.235 21817623.698 10 0 59598 82800.00000 0 -10390947.889 -5501227.709 22644257.679 10 0 59598 83700.00000 0 -8211800.510 -7286100.631 23031480.946 10 0 59598 84600.00000 0 -6154091.272 -9239203.231 22971757.386 10 0 59598 85500.00000 0 -4267846.949 -11311722.455 22466211.850 10 0 59599 0.00000 0 -2593576.940 -13447076.239 21524611.215 10 0 59599 900.00000 0 -1160785.055 -15583116.420 20165178.988 10 0 59599 1800.00000 0 13045.981 -17654579.625 18414247.972 10 0 59599 2700.00000 0 922958.780 -19595688.769 16305755.371 10 0 59599 3600.00000 0 1576491.669 -21342794.445 13880590.531 10 0 59599 4500.00000 0 1993118.036 -22836947.440 11185806.809 10 0 59599 5400.00000 0 2203178.643 -24026294.776 8273712.267 10 0 59599 6300.00000 0 2246352.425 -24868198.835 5200856.301 10 0 59599 7200.00000 0 2169730.777 -25330990.400 2026931.727 10 0 59599 8100.00000 0 2025577.255 -25395281.548 -1186386.360 10 0 59599 9000.00000 0 1868868.105 -25054782.714 -4376642.157 10 0 59599 9900.00000 0 1754718.430 -24316589.012 -7481817.213 10 0 59599 10800.00000 0 1735803.832 -23200923.318 -10441540.739 10 0 59599 11700.00000 0 1859887.624 -21740346.545 -13198267.996 10 0 59599 12600.00000 0 2167559.238 -19978468.083 -15698403.161 10 0 59599 13500.00000 0 2690280.498 -17968210.462 -17893344.423 10 0 59599 14400.00000 0 3448823.308 -15769700.996 -19740430.700 10 0 59599 15300.00000 0 4452165.641 -13447878.809 -21203771.442 10 0 59599 16200.00000 0 5696893.308 -11069917.402 -22254943.552 10 0 59599 17100.00000 0 7167133.598 -8702570.323 -22873542.133 10 0 59599 18000.00000 0 8835024.419 -6409550.652 -23047574.699 10 0 59599 18900.00000 0 10661700.087 -4249053.133 -22773691.592 10 0 59599 19800.00000 0 12598753.252 -2271521.653 -22057248.462 10 0 59599 20700.00000 0 14590112.412 -517754.376 -20912199.804 10 0 59599 21600.00000 0 16574257.103 982575.531 -19360825.809 10 0 59599 22500.00000 0 18486678.660 2211923.055 -17433297.743 10 0 59599 23400.00000 0 20262483.985 3165357.735 -15167090.321 10 0 59599 24300.00000 0 21839033.722 3850514.437 -12606252.290 10 0 59599 25200.00000 0 23158504.624 4287012.011 -9800549.280 10 0 59599 26100.00000 0 24170268.874 4505365.650 -6804495.578 10 0 59599 27000.00000 0 24832990.741 4545440.082 -3676293.607 10 0 59599 27900.00000 0 25116352.660 4454509.999 -476701.867 10 0 59599 28800.00000 0 25002338.352 4285010.660 2732146.409 10 0 59599 29700.00000 0 24486019.181 4092074.569 5887950.656 10 0 59599 30600.00000 0 23575810.805 3930959.131 8929452.749 10 0 59599 31500.00000 0 22293189.429 3854474.583 11797625.332 10 0 59599 32400.00000 0 20671879.621 3910521.424 14436815.574 10 0 59599 33300.00000 0 18756547.696 4139841.698 16795822.251 10 0 59599 34200.00000 0 16601055.317 4574079.412 18828885.371 10 0 59599 35100.00000 0 14266346.076 5234232.176 20496569.658 10 0 59599 36000.00000 0 11818052.900 6129559.724 21766525.256 10 0 59599 36900.00000 0 9323925.579 7256995.725 22614111.487 10 0 59599 37800.00000 0 6851184.810 8601088.326 23022872.163 10 0 59599 38700.00000 0 4463912.010 10134472.861 22984853.724 10 0 59599 39600.00000 0 2220582.580 11818857.942 22500760.278 10 0 59599 40500.00000 0 171844.160 13606484.891 21579942.625 10 0 59599 41400.00000 0 -1641368.759 15442000.740 20240221.237 10 0 59599 42300.00000 0 -3189306.291 17264667.622 18507546.189 10 0 59599 43200.00000 0 -4454400.326 19010817.266 16415499.975 10 0 59599 44100.00000 0 -5431746.673 20616448.764 14004652.096 10 0 59599 45000.00000 0 -6129052.722 22019861.397 11321777.202 10 0 59599 45900.00000 0 -6566053.578 23164212.454 8418951.260 10 0 59599 46800.00000 0 -6773421.884 23999892.762 5352542.790 10 0 59599 47700.00000 0 -6791217.823 24486619.770 2182118.553 10 0 59599 48600.00000 0 -6666945.367 24595159.750 -1030715.067 10 0 59599 49500.00000 0 -6453297.590 24308605.957 -4223512.235 10 0 59599 50400.00000 0 -6205687.108 23623158.240 -7334205.480 10 0 59599 51300.00000 0 -5979666.982 22548370.558 -10302316.942 10 0 59599 52200.00000 0 -5828352.120 21106855.333 -13070138.844 10 0 59599 53100.00000 0 -5799951.175 19333456.534 -15583859.551 10 0 59599 54000.00000 0 -5935514.240 17273925.789 -17794612.910 10 0 59599 54900.00000 0 -6266992.385 14983156.755 -19659430.177 10 0 59599 55800.00000 0 -6815691.779 12523051.512 -21142075.860 10 0 59599 56700.00000 0 -7591188.344 9960108.026 -22213751.406 10 0 59599 57600.00000 0 -8590749.371 7362829.223 -22853653.283 10 0 59599 58500.00000 0 -9799287.069 4799061.532 -23049374.953 10 0 59599 59400.00000 0 -11189846.611 2333373.391 -22797145.320 10 0 59599 60300.00000 0 -12724608.813 24582.254 -22101899.375 10 0 59599 61200.00000 0 -14356365.883 -2076467.560 -20977179.876 10 0 59599 62100.00000 0 -16030408.902 -3928784.681 -19444872.158 10 0 59599 63000.00000 0 -17686748.366 -5502690.935 -17534777.180 10 0 59599 63900.00000 0 -19262575.050 -6780802.343 -15284031.077 10 0 59599 64800.00000 0 -20694858.307 -7758491.328 -12736382.348 10 0 59599 65700.00000 0 -21922972.985 -8443812.261 -9941340.566 10 0 59599 66600.00000 0 -22891244.770 -8856894.905 -6953213.144 10 0 59599 67500.00000 0 -23551307.089 -9028832.729 -3830048.854 10 0 59599 68400.00000 0 -23864170.475 -9000114.231 -632508.753 10 0 59599 69300.00000 0 -23801917.306 -8818664.570 2577313.282 10 0 59599 70200.00000 0 -23348950.577 -8537581.243 5737097.232 10 0 59599 71100.00000 0 -22502744.055 -8212660.306 8785507.126 10 0 59599 72000.00000 0 -21274062.184 -7899818.307 11663380.945 10 0 59599 72900.00000 0 -19686640.318 -7652519.391 14314877.049 10 0 59599 73800.00000 0 -17776338.454 -7519316.583 16688554.954 10 0 59599 74700.00000 0 -15589803.633 -7541611.230 18738369.651 10 0 59599 75600.00000 0 -13182696.516 -7751725.301 20424560.629 10 0 59599 76500.00000 0 -10617555.623 -8171367.884 21714418.888 10 0 59599 77400.00000 0 -7961387.639 -8810560.692 22582917.648 10 0 59599 78300.00000 0 -5283083.296 -9667068.082 23013195.116 10 0 59599 79200.00000 0 -2650765.322 -10726356.110 22996880.437 10 0 59599 80100.00000 0 -129177.749 -11962083.040 22534256.784 10 0 59599 81000.00000 0 2222776.052 -13337101.663 21634258.485 10 0 59599 81900.00000 0 4354245.400 -14804932.468 20314302.040 10 0 59599 82800.00000 0 6224303.371 -16311646.947 18599953.844 10 0 59599 83700.00000 0 7803400.010 -17798083.167 16524440.438 10 0 59599 84600.00000 0 9074338.023 -19202301.582 14128009.994 10 0 59599 85500.00000 0 10032730.922 -20462178.665 11457156.719 10 0 59600 0.00000 0 10686925.192 -21518029.769 8563722.788 10 0 59600 900.00000 0 11057390.745 -22315151.557 5503893.133 10 0 59600 1800.00000 0 11175605.086 -22806175.428 2337106.327 10 0 59600 2700.00000 0 11082480.084 -22953134.244 -875102.480 10 0 59600 3600.00000 0 10826397.443 -22729153.131 -4070300.023 10 0 59600 4500.00000 0 10460937.000 -22119692.824 -7186372.468 10 0 59600 5400.00000 0 10042394.624 -21123292.203 -10162737.524 10 0 59600 6300.00000 0 9627195.501 -19751777.788 -12941526.970 10 0 59600 7200.00000 0 9269313.025 -18029930.615 -15468715.868 10 0 59600 8100.00000 0 9017803.247 -15994623.724 -17695176.083 10 0 59600 9000.00000 0 8914559.802 -13693465.853 -19577633.358 10 0 59600 9900.00000 0 8992384.763 -11183007.718 -21079509.127 10 0 59600 10800.00000 0 9273457.344 -8526585.456 -22171630.902 10 0 59600 11700.00000 0 9768265.495 -5791890.902 -22832797.641 10 0 59600 12600.00000 0 10475045.711 -3048369.690 -23050189.454 10 0 59600 13500.00000 0 11379755.007 -364555.065 -22819614.105 10 0 59600 14400.00000 0 12456576.524 2194552.229 -22145585.814 10 0 59600 15300.00000 0 13668937.820 4569949.577 -21041235.129 10 0 59600 16200.00000 0 14970999.373 6710841.952 -19528051.721 10 0 59600 17100.00000 0 16309551.051 8576504.270 -17635465.110 10 0 59600 18000.00000 0 17626237.108 10137720.087 -15400271.420 10 0 59600 18900.00000 0 18860016.417 11377737.948 -12865917.159 10 0 59600 19800.00000 0 19949754.640 12292706.816 -10081653.789 10 0 59600 20700.00000 0 20836839.345 12891573.706 -7101579.511 10 0 59600 21600.00000 0 21467707.994 13195449.327 -3983586.861 10 0 59600 22500.00000 0 21796182.276 13236469.758 -788236.670 10 0 59600 23400.00000 0 21785510.324 13056203.359 2422419.435 10 0 59600 24300.00000 0 21410030.585 12703671.247 5586044.894 10 0 59600 25200.00000 0 20656387.053 12233065.785 8641228.746 10 0 59600 26100.00000 0 19524244.421 11701264.193 11528677.022 10 0 59600 27000.00000 0 18026472.747 11165242.777 14192361.786 10 0 59600 27900.00000 0 16188793.409 10679501.317 16580605.596 10 0 59600 28800.00000 0 14048900.766 10293606.397 18647080.482 10 0 59600 29700.00000 0 11655095.615 10049957.355 20351702.500 10 0 59600 30600.00000 0 9064486.816 9981868.876 21661405.047 10 0 59600 31500.00000 0 6340835.304 10112050.904 22550776.486 10 0 59600 32400.00000 0 3552129.285 10451549.811 23002550.343 10 0 59600 33300.00000 0 767990.386 10999195.456 23007939.035 10 0 59600 34200.00000 0 -1942982.470 11741577.674 22566804.957 10 0 59600 35100.00000 0 -4515822.359 12653553.681 21687665.690 10 0 59600 36000.00000 0 -6891649.544 13699265.793 20387533.020 10 0 59600 36900.00000 0 -9019871.557 14833627.523 18691588.472 10 0 59600 37800.00000 0 -10860037.658 16004216.511 16632701.017 10 0 59600 38700.00000 0 -12383271.334 17153495.563 14250795.526 10 0 59600 39600.00000 0 -13573221.769 18221269.081 11592083.503 10 0 59600 40500.00000 0 -14426495.255 19147271.968 8708170.322 10 0 59600 41400.00000 0 -14952549.089 19873782.147 5655055.748 10 0 59600 42300.00000 0 -15173052.980 20348146.453 2492046.954 10 0 59600 43200.00000 0 -15120745.465 20525112.927 -719394.913 10 0 59600 44100.00000 0 -14837834.156 20368870.427 -3916851.959 10 0 59600 45000.00000 0 -14374007.962 19854708.600 -7038166.753 10 0 59600 45900.00000 0 -13784146.005 18970227.199 -10022655.305 10 0 59600 46800.00000 0 -13125820.754 17716042.656 -12812291.554 10 0 59600 47700.00000 0 -12456701.701 16105961.162 -15352839.680 10 0 59600 48600.00000 0 -11831969.960 14166609.987 -17594911.763 10 0 59600 49500.00000 0 -11301853.638 11936541.616 -19494929.934 10 0 59600 50400.00000 0 -10909388.516 9464847.561 -21015974.147 10 0 59600 51300.00000 0 -10688498.869 6809339.152 -22128499.226 10 0 59600 52200.00000 0 -10662479.536 4034370.698 -22810907.516 10 0 59600 53100.00000 0 -10842943.307 1208395.340 -23049966.302 10 0 59600 54000.00000 0 -11229277.962 -1598645.207 -22841062.322 10 0 59600 54900.00000 0 -11808635.773 -4317988.999 -22188288.740 10 0 59600 55800.00000 0 -12556455.885 -6884669.895 -21104363.170 10 0 59600 56700.00000 0 -13437497.593 -9239973.309 -19610378.481 10 0 59600 57600.00000 0 -14407341.039 -11333630.383 -17735391.218 10 0 59600 58500.00000 0 -15414292.194 -13125660.158 -15515855.617 10 0 59600 59400.00000 0 -16401611.990 -14587784.090 -12994914.041 10 0 59600 60300.00000 0 -17309975.699 -15704355.086 -10221557.496 10 0 59600 61200.00000 0 -18080058.904 -16472763.413 -7249672.494 10 0 59600 62100.00000 0 -18655140.941 -16903303.856 -4136992.780 10 0 59600 63000.00000 0 -18983615.891 -17018511.017 -943976.380 10 0 59600 63900.00000 0 -19021304.956 -16851991.943 2267369.927 10 0 59600 64800.00000 0 -18733472.422 -16446806.413 5434695.637 10 0 59600 65700.00000 0 -18096459.872 -15853464.168 8496517.378 10 0 59600 66600.00000 0 -17098869.384 -15127624.335 11393411.770 10 0 59600 67500.00000 0 -15742245.454 -14327594.738 14069167.031 10 0 59600 68400.00000 0 -14041226.416 -13511736.880 16471871.055 10 0 59600 69300.00000 0 -12023158.367 -12735886.224 18554914.977 10 0 59600 70200.00000 0 -9727187.046 -12050896.360 20277893.188 10 0 59600 71100.00000 0 -7202864.689 -11500410.311 21607382.895 10 0 59600 72000.00000 0 -4508329.125 -11118952.420 22517588.636 10 0 59600 72900.00000 0 -1708129.833 -10930420.775 22990839.879 10 0 59600 73800.00000 0 1129209.785 -10947043.239 23017932.554 10 0 59600 74700.00000 0 3933793.710 -11168840.860 22598308.155 10 0 59600 75600.00000 0 6637011.442 -11583621.219 21740067.061 10 0 59600 76500.00000 0 9174143.736 -12167502.272 20459815.604 10 0 59600 77400.00000 0 11486808.723 -12885945.074 18782349.429 10 0 59600 78300.00000 0 13525147.706 -13695252.530 16740178.665 10 0 59600 79200.00000 0 15249660.509 -14544471.705 14372903.334 10 0 59600 80100.00000 0 16632614.487 -15377620.143 11726450.410 10 0 59600 81000.00000 0 17658968.985 -16136142.797 8852186.612 10 0 59600 81900.00000 0 18326777.071 -16761496.136 5805923.614 10 0 59600 82800.00000 0 18647048.137 -17197750.287 2646834.787 10 0 59600 83700.00000 0 18643077.647 -17394098.974 -563695.563 10 0 59600 84600.00000 0 18349272.759 -17307170.576 -3763267.849 10 0 59600 85500.00000 0 17809523.833 -16903041.818 -6889684.005 10 0 59601 0.00000 0 17075191.253 -16158868.077 -9882160.947 10 0 59601 900.00000 0 16202792.768 -15064059.895 -12682518.053 10 0 59601 1800.00000 0 15251490.651 -13620955.992 -15236310.880 10 0 59601 2700.00000 0 14280484.117 -11844961.954 -17493894.015 10 0 59601 3600.00000 0 13346418.489 -9764148.600 -19411387.984 10 0 59601 4500.00000 0 12500920.470 -7418325.556 -20951532.938 10 0 59601 5400.00000 0 11788363.690 -4857628.023 -22084412.328 10 0 59601 6300.00000 0 11243958.707 -2140674.957 -22788032.793 10 0 59601 7200.00000 0 10892247.804 667625.098 -23048749.278 10 0 59601 8100.00000 0 10746067.626 3498529.815 -22861527.561 10 0 59601 9000.00000 0 10806022.991 6282078.963 -22230039.410 10 0 59601 9900.00000 0 11060493.620 8949762.149 -21166588.791 10 0 59601 10800.00000 0 11486173.104 11437128.207 -19691870.702 10 0 59601 11700.00000 0 12049117.071 13686228.472 -17834567.336 10 0 59601 12600.00000 0 12706256.129 15647792.995 -15630789.360 10 0 59601 13500.00000 0 13407309.553 17283049.959 -13123373.036 10 0 59601 14400.00000 0 14097018.844 18565113.393 -10361046.681 10 0 59601 15300.00000 0 14717606.681 19479882.195 -7397482.640 10 0 59601 16200.00000 0 15211357.303 20026414.012 -4290253.184 10 0 59601 17100.00000 0 15523209.074 20216759.454 -1099710.695 10 0 59601 18000.00000 0 15603249.467 20075264.742 2112185.814 10 0 59601 18900.00000 0 15409006.771 19637373.231 5283074.806 10 0 59601 19800.00000 0 14907441.354 18947977.256 8351403.323 10 0 59601 20700.00000 0 14076552.071 18059390.529 11257621.228 10 0 59601 21600.00000 0 12906529.542 17029027.187 13945335.341 10 0 59601 22500.00000 0 11400407.163 15916885.632 16362401.088 10 0 59601 23400.00000 0 9574181.777 14782943.334 18461930.641 10 0 59601 24300.00000 0 7456398.117 13684572.157 20203198.393 10 0 59601 25200.00000 0 5087213.394 12674082.640 21552426.736 10 0 59601 26100.00000 0 2516980.099 11796500.040 22483437.448 10 0 59601 27000.00000 0 -195595.094 11087664.999 22978156.681 10 0 59601 27900.00000 0 -2985640.986 10572738.039 23026964.236 10 0 59601 28800.00000 0 -5784570.216 10265170.172 22628880.661 10 0 59601 29700.00000 0 -8522685.934 10166182.456 21791588.643 10 0 59601 30600.00000 0 -11131839.761 10264776.139 20531288.108 10 0 59601 31500.00000 0 -13548031.627 10538272.959 18872387.403 10 0 59601 32400.00000 0 -15713844.439 10953363.021 16847035.971 10 0 59601 33300.00000 0 -17580613.058 11467616.411 14494506.775 10 0 59601 34200.00000 0 -19110237.756 12031395.197 11860439.761 10 0 59601 35100.00000 0 -20276566.958 12590085.424 8995960.297 10 0 59601 36000.00000 0 -21066291.837 13086555.053 5956689.167 10 0 59601 36900.00000 0 -21479315.498 13463733.905 2801663.104 10 0 59601 37800.00000 0 -21528581.596 13667206.268 -407813.234 10 0 59601 38700.00000 0 -21239369.899 13647705.923 -3609361.333 10 0 59601 39600.00000 0 -20648088.805 13363407.276 -6740745.181 10 0 59601 40500.00000 0 -19800616.162 12781914.700 -9741085.729 10 0 59601 41400.00000 0 -18750258.877 11881864.886 -12552049.183 10 0 59601 42300.00000 0 -17555417.896 10654073.350 -15118985.331 10 0 59601 43200.00000 0 -16277057.591 9102175.513 -17391993.314 10 0 59601 44100.00000 0 -14976086.650 7242734.147 -19326893.812 10 0 59601 45000.00000 0 -13710761.208 5104807.564 -20886088.569 10 0 59601 45900.00000 0 -12534219.671 2728995.570 -22039290.677 10 0 59601 46800.00000 0 -11492252.929 166002.122 -22764111.669 10 0 59601 47700.00000 0 -10621403.480 -2525226.093 -23046494.331 10 0 59601 48600.00000 0 -9947472.937 -5279708.341 -22880983.247 10 0 59601 49500.00000 0 -9484500.021 -8028894.548 -22270828.142 10 0 59601 50400.00000 0 -9234251.354 -10703284.060 -21227918.289 10 0 59601 51300.00000 0 -9186245.704 -13235090.182 -19772549.410 10 0 59601 52200.00000 0 -9318309.932 -15560840.362 -17933027.612 10 0 59601 53100.00000 0 -9597642.587 -17623804.321 -15745117.994 10 0 59601 54000.00000 0 -9982339.729 -19376149.777 -13251348.512 10 0 59601 54900.00000 0 -10423318.077 -20780736.558 -10500182.468 10 0 59601 55800.00000 0 -10866553.896 -21812474.961 -7545075.651 10 0 59601 56700.00000 0 -11255542.604 -22459192.419 -4443436.457 10 0 59601 57600.00000 0 -11533874.788 -22721973.106 -1255509.241 10 0 59601 58500.00000 0 -11647819.324 -22614957.145 1956797.099 10 0 59601 59400.00000 0 -11548804.024 -22164608.831 5131112.315 10 0 59601 60300.00000 0 -11195688.510 -21408485.525 8205816.154 10 0 59601 61200.00000 0 -10556732.875 -20393559.774 11121233.991 10 0 59601 62100.00000 0 -9611178.529 -19174165.915 13820793.442 10 0 59601 63000.00000 0 -8350373.964 -17809657.963 16252119.565 10 0 59601 63900.00000 0 -6778397.416 -16361877.494 18368047.489 10 0 59601 64800.00000 0 -4912149.376 -14892537.883 20127533.291 10 0 59601 65700.00000 0 -2780910.101 -13460634.461 21496445.938 10 0 59601 66600.00000 0 -425379.538 -12119988.821 22448225.511 10 0 59601 67500.00000 0 2103761.496 -10917029.562 22964395.533 10 0 59601 68400.00000 0 4747710.280 -9888901.791 23034920.012 10 0 59601 69300.00000 0 7441745.210 -9061983.848 22658398.531 10 0 59601 70200.00000 0 10117682.647 -8450872.720 21842095.741 10 0 59601 71100.00000 0 12706486.790 -8057880.088 20601804.510 10 0 59601 72000.00000 0 15140925.157 -7873059.727 18961544.959 10 0 59601 72900.00000 0 17358160.256 -7874764.858 16953104.638 10 0 59601 73800.00000 0 19302170.380 -8030711.852 14615427.969 10 0 59601 74700.00000 0 20925899.096 -8299505.536 11993866.086 10 0 59601 75600.00000 0 22193044.148 -8632561.770 9139300.931 10 0 59601 76500.00000 0 23079411.186 -8976346.130 6107160.014 10 0 59601 77400.00000 0 23573775.683 -9274833.944 2956340.772 10 0 59601 78300.00000 0 23678217.002 -9472087.320 -251934.676 10 0 59601 79200.00000 0 23407910.647 -9514839.581 -3455311.906 10 0 59601 80100.00000 0 22790387.556 -9354976.971 -6591520.022 10 0 59601 81000.00000 0 21864291.894 -8951811.690 -9599586.727 10 0 59601 81900.00000 0 20677689.943 -8274048.981 -12421028.409 10 0 59601 82800.00000 0 19286001.740 -7301363.997 -15000991.383 10 0 59601 83700.00000 0 17749642.978 -6025520.610 -17289321.640 10 0 59601 84600.00000 0 16131476.812 -4450983.763 -19241541.992 10 0 59601 85500.00000 0 14494183.071 -2594998.411 -20819717.427 99